Stations météo

réclame
Mon MeteoGroup
Drumnadrochit, Grande-Bretagne (99132): Température de l'air & dewpoint: 12.10.2018 13:00:00 - 18.10.2018 13:00:00 (BST)Drumnadrochit, Grande-Bretagne (99132): Quantités de précipitations: 12.10.2018 13:00:00 - 18.10.2018 13:00:00 (BST)
Date & Time tt [°C] td [°C] rr [mm]
18.10.2018 13:00:00 10,9 5,1 0,0
18.10.2018 12:00:00 9,9 5,2 0,0
18.10.2018 11:00:00 10,0 5,6 0,0
18.10.2018 10:00:00 8,9 5,9 0,0
18.10.2018 09:00:00 8,2 5,7 0,0
18.10.2018 08:00:00 4,1 4,1 0,0
18.10.2018 07:00:00 3,3 3,2 0,0
18.10.2018 06:00:00 3,4 3,4 0,0
18.10.2018 05:00:00 1,7 1,6 0,0
18.10.2018 04:00:00 2,3 2,3 0,0
18.10.2018 03:00:00 1,7 1,5 0,0
18.10.2018 02:00:00 2,2 2,1 0,0
18.10.2018 01:00:00 1,0 0,7 0,0
18.10.2018 00:00:00 2,4 1,3 0,0
17.10.2018 23:00:00 4,2 1,8 0,0
17.10.2018 22:00:00 4,0 3,3 0,0
17.10.2018 21:00:00 4,0 2,4 0,0
17.10.2018 20:00:00 5,9 3,9 0,0
17.10.2018 19:00:00 7,4 4,1 0,0
17.10.2018 18:00:00 9,7 4,0 0,0
17.10.2018 17:00:00 10,0 3,7 0,0
17.10.2018 16:00:00 12,1 3,4 0,0
17.10.2018 15:00:00 11,0 4,5 0,0
17.10.2018 14:00:00 11,9 3,5 0,0
17.10.2018 13:00:00 11,9 4,7 0,0
17.10.2018 12:00:00 10,4 4,1 0,0
17.10.2018 11:00:00 10,6 5,8 0,0
17.10.2018 10:00:00 7,8 6,9 0,0
17.10.2018 09:00:00 6,9 5,7 0,0
17.10.2018 08:00:00 8,2 6,1 0,0
17.10.2018 07:00:00 8,4 6,4 0,0
17.10.2018 06:00:00 9,0 6,0 0,0
17.10.2018 05:00:00 9,7 6,3 0,0
17.10.2018 04:00:00 10,0 6,8 0,0
17.10.2018 03:00:00 10,1 6,2 0,0
17.10.2018 02:00:00 8,9 6,7 0,0
17.10.2018 01:00:00 9,4 6,4 0,0
17.10.2018 00:00:00 11,0 8,3 0,0
16.10.2018 23:00:00 10,8 8,2 0,0
16.10.2018 22:00:00 11,5 8,3 0,0
16.10.2018 21:00:00 11,4 8,2 0,0
16.10.2018 20:00:00 11,7 8,5 0,0
16.10.2018 19:00:00 11,7 8,4 0,0
16.10.2018 18:00:00 12,1 7,7 0,0
16.10.2018 17:00:00 12,9 7,8 0,0
16.10.2018 16:00:00 13,8 8,3 0,0
16.10.2018 15:00:00 13,0 9,5 0,0
16.10.2018 14:00:00 12,0 9,3 0,0
16.10.2018 13:00:00 12,7 7,1 0,0
16.10.2018 12:00:00 13,8 4,6 0,0
16.10.2018 11:00:00 11,9 5,5 0,0
16.10.2018 10:00:00 11,1 6,4 0,0
16.10.2018 09:00:00 6,9 5,7 0,0
16.10.2018 08:00:00 6,0 4,1 0,0
16.10.2018 07:00:00 7,8 3,9 0,0
16.10.2018 06:00:00 8,7 4,1 0,0
16.10.2018 05:00:00 8,5 3,9 0,0
16.10.2018 04:00:00 8,0 5,1 0,0
16.10.2018 03:00:00 6,0 5,4 0,0
16.10.2018 02:00:00 5,9 5,0 0,0
16.10.2018 01:00:00 5,7 5,5 0,0
16.10.2018 00:00:00 5,1 4,7 0,0
15.10.2018 23:00:00 5,2 4,9 0,0
15.10.2018 22:00:00 5,2 4,9 0,0
15.10.2018 21:00:00 5,1 4,1 0,0
15.10.2018 20:00:00 6,5 4,8 0,0
15.10.2018 19:00:00 7,9 5,1 0,0
15.10.2018 18:00:00 10,7 6,2 0,0
15.10.2018 17:00:00 12,4 5,8 0,0
15.10.2018 16:00:00 12,4 5,8 0,0
15.10.2018 15:00:00 12,4 5,7 0,0
15.10.2018 14:00:00 12,6 5,5 0,0
15.10.2018 13:00:00 12,9 5,9 0,0
15.10.2018 12:00:00 12,2 6,1 0,0
15.10.2018 11:00:00 11,0 6,4 0,0
15.10.2018 10:00:00 9,4 6,0 0,0
15.10.2018 09:00:00 5,9 5,5 0,0
15.10.2018 08:00:00 4,6 4,3 0,0
15.10.2018 07:00:00 4,9 4,2 0,0
15.10.2018 06:00:00 5,1 4,1 0,0
15.10.2018 05:00:00 6,3 4,3 0,0
15.10.2018 04:00:00 7,4 4,5 0,0
15.10.2018 03:00:00 4,9 4,6 0,0
15.10.2018 02:00:00 4,5 4,4 0,0
15.10.2018 01:00:00 3,5 3,2 0,0
15.10.2018 00:00:00 3,7 3,5 0,0
14.10.2018 23:00:00 3,9 3,7 0,0
14.10.2018 22:00:00 5,7 5,5 0,0
14.10.2018 21:00:00 3,4 2,4 0,0
14.10.2018 20:00:00 4,7 3,3 0,0
14.10.2018 19:00:00 4,4 3,8 0,0
14.10.2018 18:00:00 5,3 3,9 0,0
14.10.2018 17:00:00 10,8 5,0 0,0
14.10.2018 16:00:00 10,9 4,4 0,0
14.10.2018 15:00:00 10,3 4,9 0,0
14.10.2018 14:00:00 11,5 5,7 0,0
14.10.2018 13:00:00 11,3 6,4 0,0
14.10.2018 12:00:00 8,5 8,1 0,0
14.10.2018 11:00:00 5,8 5,7 0,0
14.10.2018 10:00:00 4,7 4,7 0,0
14.10.2018 09:00:00 3,9 3,9 0,0
14.10.2018 08:00:00 3,3 3,0 0,0
14.10.2018 07:00:00 4,6 4,4 0,0
14.10.2018 06:00:00 5,3 4,9 0,0
14.10.2018 05:00:00 6,4 5,9 0,4
14.10.2018 04:00:00 7,5 6,8 0,4
14.10.2018 03:00:00 7,5 7,4 0,2
14.10.2018 02:00:00 7,6 7,5 0,2
14.10.2018 01:00:00 7,7 7,5 0,2
14.10.2018 00:00:00 7,8 7,5 0,4
13.10.2018 23:00:00 8,1 7,5 0,4
13.10.2018 22:00:00 8,3 7,1 1,2
13.10.2018 21:00:00 8,8 7,6 2,0
13.10.2018 20:00:00 9,1 8,4 1,4
13.10.2018 19:00:00 8,9 8,3 2,2
13.10.2018 18:00:00 9,0 8,4 2,0
13.10.2018 17:00:00 9,2 8,2 1,4
13.10.2018 16:00:00 9,6 8,3 1,4
13.10.2018 15:00:00 10,0 9,5 2,2
13.10.2018 14:00:00 10,0 9,3 1,2
13.10.2018 13:00:00 10,2 9,3 1,0
13.10.2018 12:00:00 10,5 9,1 0,4
13.10.2018 11:00:00 10,4 9,1 0,0
13.10.2018 10:00:00 10,4 8,6 0,0
13.10.2018 09:00:00 8,4 7,9 0,0
13.10.2018 08:00:00 8,4 7,8 0,0
13.10.2018 07:00:00 9,3 8,5 0,0
13.10.2018 06:00:00 6,8 6,6 0,0
13.10.2018 05:00:00 7,7 6,6 0,0
13.10.2018 04:00:00 9,6 7,2 0,0
13.10.2018 03:00:00 10,7 7,3 0,2
13.10.2018 02:00:00 11,0 7,8 0,0
13.10.2018 01:00:00 11,5 7,9 0,2
13.10.2018 00:00:00 12,2 8,2 0,2
12.10.2018 23:00:00 12,0 8,3 0,6
12.10.2018 22:00:00 13,5 6,6 0,0
12.10.2018 21:00:00 12,4 7,0 0,0
12.10.2018 20:00:00 11,2 8,4 0,0
12.10.2018 19:00:00 9,1 8,4 0,6
12.10.2018 18:00:00 10,8 10,4 1,6
12.10.2018 17:00:00 11,1 10,3 2,2
12.10.2018 16:00:00 11,4 10,2 3,2
12.10.2018 15:00:00 13,4 8,4 0,2
12.10.2018 14:00:00 15,6 6,5 0,0
12.10.2018 13:00:00 15,4 6,7 0,2

tt = Température de l'air
td = dewpoint
rr = Quantités de précipitations

stations d'obs. à proximité